Flag for Papua New Guinea Weather past 2 weeks in Lae, Papua New Guinea

Now
72 °F

Clear.


Feels Like: 72 °F
Forecast: 72 / 81 °F
Wind: No wind

Location: Moresby

Current Time: Jul 23, 2014 at 6:45:19 AM

Latest Report: Jul 23, 2014 at 3:00 AM


Visibility: 10 mi

Pressure: 29.86 "Hg

Humidity: 78%

Dew point: 64 °F

Location of LaeLocation

Historic Weather in Lae — Graph

°F

Lae temperature yesterday

Maximum temperature yesterday: 82 °F (at 11:00 AM)
Minimum temperature yesterday: 72 °F (at 1:00 AM)
Average temperature yesterday: 77 °F

Past Weeks' High & Low Weather Summary

 TemperatureHumidityPressure
High90 °F (Jul 15, 1:00 PM)94% (Jul 10, 5:00 PM)29.95 "Hg (Jul 10, 5:00 PM)
Low70 °F (Jul 19, 6:00 AM)48% (Jul 20, 11:00 AM)29.71 "Hg (Jul 15, 4:00 PM)
Average78 °F75%29.85 "Hg
* Reported Jul 9 1:00 PM — Jul 23 2:00 AM, Lae, Weather by CustomWeather, © 2014

Note: Actual official high and low records may vary slightly from our data, if they occured in-between our weather recording intervals... More about our weather records

Advertising

Lae weather history for previous 24 hours

 ConditionsComfort  
Time TempWeatherWind HumidityBarometerVisibility
2:00 AM
Jul 23
72 °FPassing clouds.No wind78%29.89 "HgN/A
1:00 AM73 °FPassing clouds.No wind74%29.89 "HgN/A
12:00 AM73 °FPassing clouds.3 mph74%29.89 "HgN/A
11:00 PM
Jul 22
75 °FClear.12 mph61%29.89 "Hg10 mi
10:00 PM75 °FClear.12 mph69%29.89 "Hg10 mi
9:00 PM75 °FClear.12 mph69%29.89 "Hg10 mi
8:00 PM75 °FPassing clouds.9 mph69%29.89 "HgN/A
7:00 PM77 °FPassing clouds.12 mph65%29.86 "HgN/A
6:00 PM79 °FPartly sunny.17 mph70%29.86 "HgN/A
5:00 PM79 °FScattered clouds.23 mph61%29.83 "HgN/A
4:00 PM82 °FScattered clouds.17 mph55%29.83 "HgN/A
3:00 PM82 °FScattered clouds.16 mph66%29.83 "HgN/A
2:00 PM82 °FBroken clouds.17 mph58%29.86 "HgN/A
1:00 PM82 °FBroken clouds.17 mph55%29.86 "HgN/A
12:00 PM82 °FPassing clouds.16 mph58%29.89 "HgN/A
11:00 AM82 °FPartly sunny.16 mph62%29.92 "HgN/A
10:00 AMN/APartly sunny.14 mphN/A29.77 "HgN/A
9:00 AM77 °FPartly sunny.9 mph65%29.95 "HgN/A
8:00 AM75 °FPartly sunny.12 mph69%29.95 "HgN/A
7:00 AM75 °FScattered clouds.12 mph69%29.92 "HgN/A
6:00 AM75 °FMostly cloudy.14 mph74%29.89 "HgN/A
Weather by CustomWeather, © 2014

See weather overviewHow to use our weather pages